Terminal Aerodrome Forecast
Issued by NWS New Orleans/Baton Rouge, LA

Home | Current Version | Previous Version | Text Only | Print | Product List | Glossary On
Versions: 1 2 3 4 5 6 7 8 9 10 11 12 13 14 15 16 17 18 19 20 21 22 23 24 25 26 27 28 29 30 31 32 33 34 35 36 37 38 39 40 41 42 43 44
000
FTUS44 KLIX 221728
TAFNEW
TAF
KNEW 221728Z 2218/2318 33005KT P6SM FEW030
     FM230900 01006KT P6SM SCT030
     FM231200 03005KT P6SM SCT010
     FM231700 VRB03KT P6SM FEW150=

USA.gov is the U.S. government's official web portal to all federal, state and local government web resources and services.